Weather in Jelenia Gora

Poland     50°52′01″N   15°40′47″E
temp.,
°C
wind,
m/s
gust,
m/s
humid.,
%
clouds,
%
prec.,
mm/h
press.,
hPa
HPBL,
m
19 may, wed
wed1923:00+4wnw119541 0.0 101315
02:00+4wnw119520 0.0 101312
05:00+4wsw119585 0.3 101416
08:00+8nnw128657 0.8 1014522
11:00+7nnw2291100 1.7 1014391
14:00+10nnw2379100 2.9 10131053
17:00+8nnw3588100 1.6 1014745
20:00+7nnw2594100 2.1 1015310
20 may, thu
thu2023:00+4nw2297100 0.0 101742
02:00+4nw2295100 0.0 101726
05:00+3nw2295100 0.0 101822
08:00+8nw2483100 0.0 1018556
11:00+11nw356657 0.4 10181283
14:00+12nw465750 0.8 10181507
17:00+11wnw466586 0.4 10181398
20:00+7wnw11895 0.7 102019
21 may, fri
fri2123:00+4wsw11935 0.0 102115
02:00+4sw2292100 0.0 102018
05:00+4ssw2294100 0.0 101938
08:00+8ssw3484100 0.0 1017366
11:00+11ssw4859100 0.0 10151013
14:00+13ssw61056100 0.0 10131411
17:00+9sw71786100 0.5 10121519
20:00+8sw51295100 1.4 10111348
22 may, sat
sat2223:00+7ssw21093100 0.1 1011619
02:00+7sw31295100 0.5 1010755
05:00+7ssw2898100 0.6 1009448
08:00+7ssw2899100 1.3 1009709
11:00+8wsw3993100 0.6 1009917
14:00+12wsw6962100 0.9 10081506
17:00+11wsw5959100 0.1 10081375
20:00+8sw39723 0.2 1009667
23 may, sun
sun2323:00+6sw4128024 0.0 1010709
02:00+5sw51286100 0.0 1010834
05:00+5sw41191100 0.0 1010918
08:00+6wsw4109075 0.3 1012999
11:00+8w487597 0.4 10141295
14:00+10w595976 0.8 10141596
17:00+11w485137 0.1 10151795
20:00+8sw4877100 0.3 1016770